Weather History for Cecil Field, FL

Change the Weather History Date:

Thursday, December 20, 2012

  Actual Average (KJAX) Record (KJAX)
Temperature  
Mean Temperature 58 °F 54 °F  
Max Temperature 77 °F 66 °F 82 °F (1990)
Min Temperature 39 °F 43 °F 19 °F (1981)
Degree Days  
Heating Degree Days 7 11  
Month to date heating degree days 191  
Since 1 July heating degree days 364  
Cooling Degree Days 0 1  
Month to date cooling degree days 20  
Year to date cooling degree days 2664  
Growing Degree Days 8 (Base 50)    
Moisture  
Dew Point 53 °F    
Average Humidity 93    
Maximum Humidity 100    
Minimum Humidity 61    
Precipitation  
Precipitation 0.23 in 0.10 in 2.86 in (1915)
Month to date precipitation 1.79  
Year to date precipitation 51.38  
Snow  
Snow 0.00 in 0.00 in 0.00 in (2001)
Month to date snowfall 0.0  
Since 1 July snowfall 0.0  
Snow Depth -    
Sea Level Pressure  
Sea Level Pressure 29.99 in    
Wind  
Wind Speed 4 mph (SSW)    
Max Wind Speed 21 mph    
Max Gust Speed 31 mph    
Visibility 9 miles    
Events Rain    
T = Trace of Precipitation, MM = Missing Value Source: NWS Daily Summary

Daily Weather History Graph

Daily Weather History Graph

Search for Another Location

Airport:

Trip Planner

Search our weather history database for the weather conditions in past years. The results will help you decide how hot, cold, wet, or windy it might be!

Date:

Astronomy

Dec. 20, 2012 Rise Set
Actual Time 7:19 AM EST 5:31 PM EST
Civil Twilight 6:53 AM EST 5:57 PM EST
Nautical Twilight 6:23 AM EST 6:27 PM EST
Astronomical Twilight 5:53 AM EST 6:57 PM EST
Moon 12:28 PM EST (12/20) 12:27 AM EST (12/20)
Length of Visible Light 11h 04m
Length of Day
10h 11m
First Quarter, 55% of the Moon is Illuminated
Dec 20
First Quarter
Dec 28
Full
Jan 4
Last Quarter
Jan 11
New
Jan 18
First Quarter

Hourly Weather History & Observations

Time (EST) Temp. Windchill Dew Point Humidity Pressure Visibility Wind Dir Wind Speed Gust Speed Precip Events Conditions
12:15 AM 41.0 °F - 41.0 °F 100% 30.10 in 10.0 mi Calm Calm - N/A   Clear
12:35 AM 41.0 °F - 41.0 °F 100% 30.10 in 10.0 mi Calm Calm - N/A   Clear
12:55 AM 41.0 °F - 41.0 °F 100% 30.09 in 10.0 mi Calm Calm - N/A   Clear
1:15 AM 41.0 °F - 41.0 °F 100% 30.09 in 10.0 mi Calm Calm - N/A   Clear
1:35 AM 39.2 °F - 39.2 °F 100% 30.09 in 10.0 mi Calm Calm - N/A   Clear
1:55 AM 41.0 °F - 41.0 °F 100% 30.09 in 10.0 mi Calm Calm - N/A   Clear
2:35 AM 39.2 °F - 39.2 °F 100% 30.09 in 10.0 mi Calm Calm - N/A   Clear
2:55 AM 39.2 °F - 39.2 °F 100% 30.09 in 9.0 mi Calm Calm - N/A   Clear
3:15 AM 41.0 °F - 41.0 °F 100% 30.09 in 10.0 mi Calm Calm - N/A   Clear
3:35 AM 41.0 °F - 41.0 °F 100% 30.08 in 10.0 mi Calm Calm - N/A   Clear
3:55 AM 39.2 °F - 39.2 °F 100% 30.07 in 10.0 mi Calm Calm - N/A   Clear
4:15 AM 39.2 °F - 39.2 °F 100% 30.08 in 10.0 mi Calm Calm - N/A   Clear
4:35 AM 41.0 °F - 41.0 °F 100% 30.07 in 10.0 mi Calm Calm - N/A   Clear
4:55 AM 41.0 °F - 41.0 °F 100% 30.07 in 10.0 mi Calm Calm - N/A   Clear
5:15 AM 41.0 °F - 41.0 °F 100% 30.07 in 9.0 mi Calm Calm - N/A   Clear
5:35 AM 41.0 °F - 41.0 °F 100% 30.08 in 10.0 mi Calm Calm - N/A   Clear
5:55 AM 41.0 °F - 41.0 °F 100% 30.08 in 9.0 mi Calm Calm - N/A   Clear
6:15 AM 41.0 °F - 41.0 °F 100% 30.08 in 10.0 mi Calm Calm - N/A   Partly Cloudy
6:35 AM 41.0 °F - 41.0 °F 100% 30.08 in 10.0 mi Calm Calm - N/A   Partly Cloudy
6:50 AM 41.0 °F - 41.0 °F 100% 30.08 in 6.0 mi Calm Calm - N/A   Clear
7:10 AM 41.0 °F - 41.0 °F 100% 30.08 in 2.0 mi Calm Calm - N/A   Clear
7:50 AM 44.6 °F 43.1 °F 44.6 °F 100% 30.08 in 7.0 mi South 3.5 mph - N/A   Clear
8:50 AM 53.6 °F - 53.6 °F 100% 30.08 in 6.0 mi SE 3.5 mph - N/A   Clear
9:50 AM 62.6 °F - 59.0 °F 88% 30.07 in 10.0 mi South 10.4 mph - N/A   Partly Cloudy
10:50 AM 69.8 °F - 62.6 °F 78% 30.04 in 10.0 mi South 13.8 mph - N/A   Scattered Clouds
11:50 AM 73.4 °F - 64.4 °F 73% 30.01 in 10.0 mi South 20.7 mph - N/A   Scattered Clouds
12:50 PM 75.2 °F - 64.4 °F 69% 29.96 in 10.0 mi South 15.0 mph - N/A   Scattered Clouds
1:50 PM 77.0 °F - 62.6 °F 61% 29.93 in 10.0 mi South 11.5 mph - N/A   Scattered Clouds
2:50 PM 77.0 °F - 62.6 °F 61% 29.90 in 10.0 mi South 13.8 mph 23.0 mph N/A   Scattered Clouds
3:50 PM 77.0 °F - 62.6 °F 61% 29.89 in 10.0 mi South 13.8 mph 23.0 mph N/A   Mostly Cloudy
4:50 PM 75.2 °F - 64.4 °F 69% 29.87 in 10.0 mi South 8.1 mph - N/A   Scattered Clouds
6:50 PM 73.4 °F - 64.4 °F 73% 29.85 in 7.0 mi SSW 19.6 mph 24.2 mph N/A   Mostly Cloudy
7:50 PM 68.0 °F - 68.0 °F 100% 29.87 in 3.0 mi SSW 9.2 mph - N/A   Overcast
8:15 PM 68.0 °F - 68.0 °F 100% 29.86 in 1.0 mi South 10.4 mph - 0.14 in Rain Rain
8:35 PM 68.0 °F - 68.0 °F 100% 29.85 in 5.0 mi South 5.8 mph - 0.14 in Rain Light Rain
8:55 PM 68.0 °F - 68.0 °F 100% 29.86 in 1.5 mi South 6.9 mph 16.1 mph 0.23 in Rain Light Rain
9:15 PM 68.0 °F - 68.0 °F 100% 29.86 in 10.0 mi SSW 9.2 mph 18.4 mph N/A   Mostly Cloudy
9:35 PM 68.0 °F - 68.0 °F 100% 29.86 in 10.0 mi SSW 10.4 mph - N/A   Mostly Cloudy
9:55 PM 68.0 °F - 68.0 °F 100% 29.86 in 10.0 mi SW 12.7 mph 16.1 mph N/A Rain Light Rain
10:15 PM 68.0 °F - 66.2 °F 94% 29.86 in 10.0 mi SW 15.0 mph 19.6 mph N/A   Overcast
10:35 PM 68.0 °F - 66.2 °F 94% 29.87 in 7.0 mi SW 10.4 mph 17.3 mph N/A   Overcast
10:55 PM 66.2 °F - 66.2 °F 100% 29.87 in 10.0 mi SW 9.2 mph 20.7 mph N/A   Mostly Cloudy
11:15 PM 64.4 °F - 59.0 °F 83% 29.90 in 10.0 mi West 20.7 mph 31.1 mph N/A Rain Light Rain
11:35 PM 62.6 °F - 59.0 °F 88% 29.91 in 10.0 mi West 16.1 mph - N/A   Overcast
11:55 PM 60.8 °F - 53.6 °F 77% 29.91 in 10.0 mi WNW 16.1 mph 20.7 mph N/A   Mostly Cloudy